Starlink 30313

operational
NORAD ID: 57676 Int'l Des: 2023-124 Owner: SPXS Country: US Constellation: starlink
LEOCIRCULAR

About Starlink 30313

Description loading...

Live Position

Loading 3D Globe...

Upcoming Passes

Altitude History

Altitude vs Time

uPlot chart will show altitude changes over time

Two-Line Element Set

1 57676U 23124P 25305.65684783 -.00009390 00000-0 -30487-3 0 9993
2 57676 53.1591 81.6869 0000892 73.7675 286.3423 15.30245333123967
Epoch: Nov 1, 2025 • Age: 19 hours

Current Status

Altitude 480.1 km
Velocity 7.63 km/s
Sub-Earth Point 48.33°N, 6.74°W
Launch Date Aug 22, 2023
Age 2.1 years
Type internet

Technical Details

Classification Payload
Mass 730.00 kg
Dry Mass 700.00 kg
Total Mass 730.00 kg
Length 0.30 m
Diameter 4.10 m
Span 29.00 m
Shape Box + pan
Manufacturer SPXS
Bus Type Starlink V2M
Phase Status In Orbit
Owner/State SPXS/US

Large Constellations

Loading constellations...